{"data":{"norad_id":64819,"intl_designator":"2025-151D","name":"KUIPER-00072","alt_names":[],"object_type":"PAYLOAD","status":"ACTIVE","operator":null,"country":"US","launch_date":"2025-07-16","launch_site_code":"AFETR","launch_vehicle":null,"mission":null,"orbit_class":"UNKNOWN","rcs_meters":null,"size_class":null,"mass_kg":null,"dimensions":null,"purposes":[],"wikipedia_slug":null,"has_3d_model":false,"image_url":null,"decayed_at":null,"tle_current":{"epoch":"2026-05-25T03:43:28.301088Z","epoch_age_seconds":58697,"freshness":"FRESH","line1":"1 64819U 25151D   26145.15518867  .00002124  00000+0  30751-3 0  9998","line2":"2 64819  51.8965 304.9193 0000707 126.5752 233.5276 14.79935746 46873","mean_motion":14.79935746,"eccentricity":7.07e-5,"inclination_deg":51.8965,"raan_deg":304.9193,"arg_perigee_deg":126.5752,"mean_anomaly_deg":233.5276,"bstar":0.00030751,"rev_number":4687,"period_min":97.30152162971,"perigee_km":629.03151890483,"apogee_km":630.02240258888,"semimajor_km":7007.6639607469,"source":"CELESTRAK","updated_at":"2026-05-25T13:38:04.822075Z"}}}